.
WxDataArchive / Data Records for 2006-01-22
2006-01-21 January 2006 2006-01-23

Data Records for Sunday, 22 January 2006

Time	Temp	Chill	HIndex	Humid	Dewpt	 Wind 	HiWind	WindDir	Rain 	Barom 
-----	----	-----	------	-----	-----	------	------	-------	-----	----- 
00:00	24.2	24.2	24.2	92	22.2	0	0	---	0.00	30.508 
00:05	24.2	24.2	24.2	92	22.2	0	0	---	0.00	30.508 
00:10	24.2	24.2	24.2	92	22.2	0	0	---	0.00	30.508 
00:15	24.2	24.2	24.2	92	22.2	0	0	---	0.00	30.508 
00:20	24.2	24.2	24.2	92	22.2	0	0	---	0.00	30.508 
00:25	24.1	24.1	24.1	92	22.1	0	0	---	0.00	30.508 
00:30	24.1	24.1	24.1	92	22.1	0	0	---	0.00	30.507 
00:35	24.1	24.1	24.1	92	22.1	0	0	---	0.00	30.507 
00:40	23.9	23.9	23.9	92	21.9	0	0	---	0.00	30.507 
00:45	23.8	23.8	23.8	92	21.8	0	0	---	0.00	30.504 
00:50	23.8	23.8	23.8	92	21.8	0	0	---	0.00	30.504 
00:55	23.6	23.6	23.6	92	21.6	0	0	---	0.00	30.504 
01:00	23.6	23.6	23.6	92	21.6	0	0	---	0.00	30.505 
01:05	23.6	23.6	23.6	92	21.6	0	0	---	0.00	30.505 
01:10	23.5	23.5	23.5	92	21.5	0	0	---	0.00	30.505 
01:15	23.5	23.5	23.5	92	21.5	0	0	---	0.00	30.503 
01:20	23.3	23.3	23.3	92	21.3	0	0	---	0.00	30.503 
01:25	23.2	23.2	23.2	92	21.2	0	0	---	0.00	30.503 
01:30	23.0	23.0	23.0	91	20.8	0	0	---	0.00	30.509 
01:35	22.9	22.9	22.9	91	20.7	0	0	---	0.00	30.509 
01:40	22.7	22.7	22.7	91	20.5	0	0	---	0.00	30.509 
01:45	22.7	22.7	22.7	92	20.7	0	0	---	0.00	30.512 
01:50	22.7	22.7	22.7	92	20.7	0	0	---	0.00	30.512 
01:55	22.7	22.7	22.7	92	20.7	0	0	---	0.00	30.512 
02:00	22.7	22.7	22.7	92	20.7	0	0	---	0.00	30.513 
02:05	22.7	22.7	22.7	92	20.7	0	0	---	0.00	30.513 
02:10	22.5	22.5	22.5	91	20.3	0	0	---	0.00	30.513 
02:15	22.5	22.5	22.5	91	20.3	0	0	---	0.00	30.512 
02:20	22.4	22.4	22.4	91	20.2	0	0	---	0.00	30.512 
02:25	22.1	22.1	22.1	91	19.9	0	0	---	0.00	30.512 
02:30	22.1	22.1	22.1	91	19.9	0	0	---	0.00	30.515 
02:35	21.9	21.9	21.9	91	19.7	0	0	---	0.00	30.515 
02:40	21.9	21.9	21.9	91	19.7	0	0	---	0.00	30.515 
02:45	21.8	21.8	21.8	91	19.6	0	0	---	0.00	30.515 
02:50	21.8	21.8	21.8	91	19.6	0	0	---	0.00	30.515 
02:55	21.6	21.6	21.6	91	19.4	0	0	---	0.00	30.515 
03:00	21.6	21.6	21.6	91	19.4	0	0	---	0.00	30.517 
03:05	21.6	21.6	21.6	91	19.4	0	0	---	0.00	30.517 
03:10	21.6	21.6	21.6	91	19.4	0	0	---	0.00	30.517 
03:15	21.8	21.8	21.8	91	19.6	0	0	---	0.00	30.516 
03:20	21.8	21.8	21.8	91	19.6	0	0	---	0.00	30.516 
03:25	21.8	21.8	21.8	91	19.6	0	0	---	0.00	30.516 
03:30	21.9	21.9	21.9	91	19.7	0	0	---	0.00	30.513 
03:35	21.9	21.9	21.9	91	19.7	0	0	---	0.00	30.513 
03:40	21.9	21.9	21.9	91	19.7	0	0	---	0.00	30.513 
03:45	21.9	21.9	21.9	91	19.7	0	0	---	0.00	30.513 
03:50	21.9	21.9	21.9	91	19.7	0	0	---	0.00	30.513 
03:55	21.9	21.9	21.9	91	19.7	0	0	---	0.00	30.513 
04:00	21.8	21.8	21.8	91	19.6	0	0	---	0.00	30.508 
04:05	21.8	21.8	21.8	91	19.6	0	0	---	0.00	30.508 
04:10	21.6	21.6	21.6	91	19.4	0	0	---	0.00	30.508 
04:15	21.6	21.6	21.6	91	19.4	0	0	---	0.00	30.505 
04:20	21.4	21.4	21.4	91	19.2	0	0	---	0.00	30.505 
04:25	21.4	21.4	21.4	91	19.2	0	0	---	0.00	30.505 
04:30	21.4	21.4	21.4	91	19.2	0	0	---	0.00	30.507 
04:35	21.4	21.4	21.4	91	19.2	0	0	---	0.00	30.507 
04:40	21.4	21.4	21.4	91	19.2	0	0	---	0.00	30.507 
04:45	21.6	21.6	21.6	91	19.4	0	0	---	0.00	30.502 
04:50	21.8	21.8	21.8	92	19.8	0	0	---	0.00	30.502 
04:55	21.8	21.8	21.8	92	19.8	0	0	---	0.00	30.502 
05:00	21.8	21.8	21.8	92	19.8	0	0	---	0.00	30.507 
05:05	21.6	21.6	21.6	91	19.4	0	0	---	0.00	30.507 
05:10	21.4	21.4	21.4	91	19.2	0	0	---	0.00	30.507 
05:15	21.6	21.6	21.6	92	19.6	0	0	---	0.00	30.508 
05:20	21.6	21.6	21.6	92	19.6	0	0	---	0.00	30.508 
05:25	21.8	21.8	21.8	91	19.6	0	0	---	0.00	30.508 
05:30	21.9	21.9	21.9	92	19.9	0	0	---	0.00	30.507 
05:35	21.9	21.9	21.9	91	19.7	0	0	---	0.00	30.507 
05:40	21.9	21.9	21.9	91	19.7	0	0	---	0.00	30.507 
05:45	21.9	21.9	21.9	91	19.7	0	0	---	0.00	30.499 
05:50	21.9	21.9	21.9	91	19.7	0	0	---	0.00	30.499 
05:55	22.1	22.1	22.1	92	20.1	0	0	---	0.00	30.499 
06:00	22.2	22.2	22.2	92	20.2	0	0	---	0.00	30.508 
06:05	22.5	22.5	22.5	92	20.5	0	0	---	0.00	30.508 
06:10	22.7	22.7	22.7	92	20.7	0	0	---	0.00	30.508 
06:15	22.9	22.9	22.9	92	20.9	0	0	---	0.00	30.510 
06:20	22.7	22.7	22.7	92	20.7	0	0	---	0.00	30.510 
06:25	22.5	22.5	22.5	92	20.5	0	0	---	0.00	30.510 
06:30	22.5	22.5	22.5	92	20.5	0	0	---	0.00	30.514 
06:35	22.4	22.4	22.4	92	20.4	0	0	---	0.00	30.514 
06:40	22.2	22.2	22.2	91	20.0	0	0	---	0.00	30.514 
06:45	22.1	22.1	22.1	91	19.9	0	0	---	0.00	30.515 
06:50	21.9	21.9	21.9	91	19.7	0	0	---	0.00	30.515 
06:55	21.8	21.8	21.8	91	19.6	0	0	---	0.00	30.515 
07:00	21.8	21.8	21.8	91	19.6	0	0	---	0.00	30.513 
07:05	21.8	21.8	21.8	91	19.6	0	0	---	0.00	30.513 
07:10	21.6	21.6	21.6	91	19.4	0	0	---	0.00	30.513 
07:15	21.4	21.4	21.4	91	19.2	0	0	---	0.00	30.516 
07:20	21.3	21.3	21.3	91	19.1	0	0	---	0.00	30.516 
07:25	21.1	21.1	21.1	91	18.9	0	0	---	0.00	30.516 
07:30	21.1	21.1	21.1	91	18.9	0	0	---	0.00	30.506 
07:35	21.0	21.0	21.0	90	18.5	0	0	---	0.00	30.506 
07:40	20.8	20.8	20.8	90	18.3	0	0	---	0.00	30.506 
07:45	20.8	20.8	20.8	90	18.3	0	0	---	0.00	30.511 
07:50	20.6	20.6	20.6	90	18.1	0	0	---	0.00	30.511 
07:55	20.6	20.6	20.6	90	18.1	0	0	---	0.00	30.511 
08:00	20.6	20.6	20.6	91	18.4	0	0	---	0.00	30.516 
08:05	21.0	21.0	21.0	91	18.8	0	0	---	0.00	30.516 
08:10	21.1	21.1	21.1	91	18.9	0	0	---	0.00	30.516 
08:15	21.1	21.1	21.1	91	18.9	0	0	---	0.00	30.517 
08:20	21.4	21.4	21.4	91	19.2	0	1	292	0.00	30.517 
08:25	22.9	22.9	22.9	93	21.2	1	2	0	0.00	30.517 
08:30	24.2	24.2	24.2	93	22.5	1	3	90	0.00	30.502 
08:35	25.3	25.3	25.3	93	23.6	1	3	90	0.00	30.502 
08:40	25.8	25.8	25.8	93	24.1	1	2	90	0.00	30.502 
08:45	26.3	26.3	26.3	93	24.6	1	2	90	0.00	30.503 
08:50	26.6	26.6	26.6	92	24.6	1	3	90	0.00	30.503 
08:55	26.7	26.7	26.7	92	24.7	1	2	90	0.00	30.503 
09:00	26.9	26.9	26.9	92	24.9	1	3	90	0.00	30.499 
09:05	27.0	27.0	27.0	91	24.7	1	3	90	0.00	30.499 
09:10	27.2	27.2	27.2	91	24.9	1	3	90	0.00	30.499 
09:15	27.3	27.3	27.3	90	24.8	1	3	90	0.00	30.502 
09:20	27.5	27.5	27.5	90	25.0	2	3	90	0.00	30.502 
09:25	27.8	27.8	27.8	89	25.0	2	5	90	0.00	30.502 
09:30	27.9	27.9	27.9	89	25.1	2	3	90	0.00	30.502 
09:35	28.1	28.1	28.1	89	25.3	2	4	90	0.00	30.502 
09:40	28.2	28.2	28.2	89	25.4	2	4	90	0.00	30.502 
09:45	28.4	28.4	28.4	88	25.3	2	4	112	0.00	30.495 
09:50	28.5	28.5	28.5	88	25.4	2	6	112	0.00	30.495 
09:55	28.7	28.7	28.7	88	25.6	1	3	112	0.00	30.495 
10:00	28.8	28.8	28.8	88	25.7	2	4	90	0.00	30.499 
10:05	29.0	29.0	29.0	87	25.6	3	5	90	0.00	30.499 
10:10	29.0	29.0	29.0	87	25.6	2	3	112	0.00	30.499 
10:15	29.1	29.1	29.1	87	25.7	2	4	90	0.00	30.504 
10:20	29.3	29.3	29.3	87	25.9	2	4	90	0.00	30.504 
10:25	29.3	29.3	29.3	86	25.6	3	5	90	0.00	30.504 
10:30	29.4	29.4	29.4	86	25.7	2	5	90	0.00	30.506 
10:35	29.5	29.5	29.5	86	25.8	2	4	112	0.00	30.506 
10:40	29.7	29.7	29.7	87	26.3	2	5	112	0.00	30.506 
10:45	29.8	29.8	29.8	87	26.4	2	5	90	0.00	30.503 
10:50	30.0	30.0	30.0	86	26.3	1	3	112	0.00	30.503 
10:55	30.1	30.1	30.1	86	26.4	2	3	90	0.00	30.503 
11:00	30.3	30.3	30.3	85	26.3	2	3	112	0.00	30.506 
11:05	30.4	30.4	30.4	85	26.4	1	4	112	0.00	30.506 
11:10	30.6	30.6	30.6	85	26.6	2	5	112	0.00	30.506 
11:15	30.7	30.7	30.7	86	27.0	1	3	90	0.00	30.495 
11:20	30.9	30.9	30.9	85	26.9	2	4	90	0.00	30.495 
11:25	31.0	31.0	31.0	84	26.7	1	4	90	0.00	30.495 
11:30	31.2	31.2	31.2	85	27.2	1	3	90	0.00	30.501 
11:35	31.5	31.5	31.5	84	27.2	1	3	90	0.00	30.501 
11:40	31.6	31.6	31.6	83	27.0	1	2	90	0.00	30.501 
11:45	31.8	31.8	31.8	81	26.6	1	3	90	0.00	30.490 
11:50	31.9	31.9	31.9	81	26.7	1	3	90	0.00	30.490 
11:55	32.1	32.1	32.1	81	26.9	2	4	90	0.00	30.490 
12:00	32.1	32.1	32.1	80	26.6	2	4	90	0.00	30.476 
12:05	32.1	32.1	32.1	81	26.9	2	4	90	0.00	30.476 
12:10	32.1	32.1	32.1	81	26.9	2	5	90	0.00	30.476 
12:15	32.4	32.4	32.4	83	27.8	1	4	90	0.00	30.459 
12:20	32.5	32.5	32.5	82	27.6	1	4	90	0.00	30.459 
12:25	32.7	32.7	32.7	81	27.5	1	3	45	0.00	30.459 
12:30	32.7	32.7	32.7	82	27.8	2	6	112	0.00	30.444 
12:35	32.8	32.8	32.8	80	27.3	2	4	22	0.00	30.444 
12:40	32.9	32.9	32.9	82	28.0	2	6	112	0.00	30.444 
12:45	32.9	32.9	32.9	81	27.7	2	6	112	0.00	30.431 
12:50	33.1	33.1	33.1	81	27.9	1	4	68	0.00	30.431 
12:55	33.1	33.1	33.1	79	27.3	2	4	90	0.00	30.431 
13:00	33.2	33.2	33.2	78	27.1	3	6	90	0.00	30.417 
13:05	33.1	33.1	33.1	78	27.0	3	5	112	0.00	30.417 
13:10	33.2	33.2	33.2	78	27.1	3	5	112	0.00	30.417 
13:15	33.4	33.4	33.4	79	27.6	2	5	112	0.00	30.412 
13:20	33.5	33.5	33.5	79	27.7	2	4	112	0.00	30.412 
13:25	33.7	33.7	33.7	77	27.3	3	6	112	0.00	30.412 
13:30	33.7	33.7	33.7	77	27.3	1	4	112	0.00	30.413 
13:35	33.7	33.7	33.7	77	27.3	2	4	112	0.00	30.413 
13:40	33.7	33.7	33.7	77	27.3	2	5	90	0.00	30.413 
13:45	33.7	33.7	33.7	77	27.3	2	4	90	0.00	30.403 
13:50	33.8	33.8	33.8	77	27.4	1	3	68	0.00	30.403 
13:55	33.8	33.8	33.8	77	27.4	2	6	112	0.00	30.403 
14:00	33.8	33.8	33.8	76	27.1	2	4	90	0.00	30.399 
14:05	33.8	33.8	33.8	75	26.7	2	4	90	0.00	30.399 
14:10	34.1	34.1	34.1	77	27.7	1	4	90	0.00	30.399 
14:15	34.3	34.3	34.3	75	27.2	1	4	90	0.00	30.382 
14:20	34.6	34.6	34.6	76	27.8	1	4	90	0.00	30.382 
14:25	34.7	34.7	34.7	76	27.9	1	4	45	0.00	30.382 
14:30	34.7	34.7	34.7	74	27.3	1	4	112	0.00	30.381 
14:35	34.9	34.9	34.9	73	27.1	2	4	112	0.00	30.381 
14:40	34.7	34.7	34.7	74	27.3	2	4	90	0.00	30.381 
14:45	34.9	34.9	34.9	73	27.1	1	3	68	0.00	30.368 
14:50	35.0	35.0	35.0	75	27.9	1	4	45	0.00	30.368 
14:55	35.2	35.2	35.2	76	28.4	1	3	68	0.00	30.368 
15:00	34.9	34.9	34.9	75	27.8	3	6	90	0.00	30.349 
15:05	34.7	34.7	34.7	76	27.9	3	6	112	0.00	30.349 
15:10	34.9	34.9	34.9	77	28.4	1	5	90	0.00	30.349 
15:15	34.9	34.9	34.9	75	27.8	2	5	90	0.00	30.333 
15:20	34.9	34.9	34.9	75	27.8	2	6	112	0.00	30.333 
15:25	34.9	34.9	34.9	74	27.5	3	6	112	0.00	30.333 
15:30	34.9	34.9	34.9	75	27.8	3	7	112	0.00	30.317 
15:35	34.9	34.9	34.9	75	27.8	3	9	112	0.00	30.317 
15:40	35.0	35.0	35.0	76	28.2	2	5	68	0.00	30.317 
15:45	35.0	35.0	35.0	76	28.2	2	5	90	0.00	30.313 
15:50	35.0	35.0	35.0	76	28.2	2	5	112	0.00	30.313 
15:55	35.0	35.0	35.0	76	28.2	2	5	112	0.00	30.313 
16:00	35.0	35.0	35.0	76	28.2	1	4	112	0.00	30.319 
16:05	34.9	34.9	34.9	77	28.4	2	5	90	0.00	30.319 
16:10	34.9	34.9	34.9	76	28.1	2	6	90	0.00	30.319 
16:15	34.7	34.7	34.7	78	28.6	2	5	112	0.00	30.318 
16:20	34.7	34.7	34.7	77	28.2	1	3	112	0.00	30.318 
16:25	34.7	34.7	34.7	77	28.2	3	6	112	0.00	30.318 
16:30	34.7	34.7	34.7	78	28.6	2	5	90	0.00	30.312 
16:35	34.6	34.6	34.6	77	28.1	2	4	90	0.00	30.312 
16:40	34.7	34.7	34.7	78	28.6	2	5	112	0.00	30.312 
16:45	34.7	34.7	34.7	78	28.6	2	6	112	0.00	30.306 
16:50	34.7	34.7	34.7	78	28.6	2	3	90	0.00	30.306 
16:55	34.7	34.7	34.7	79	28.9	2	4	90	0.00	30.306 
17:00	34.6	34.6	34.6	79	28.8	1	3	45	0.00	30.305 
17:05	34.6	34.6	34.6	80	29.1	1	2	45	0.00	30.305 
17:10	34.4	34.4	34.4	80	28.9	1	3	90	0.00	30.305 
17:15	34.4	34.4	34.4	80	28.9	1	3	90	0.00	30.321 
17:20	34.3	34.3	34.3	81	29.1	0	2	90	0.00	30.321 
17:25	34.3	34.3	34.3	81	29.1	1	2	90	0.00	30.321 
17:30	34.3	34.3	34.3	81	29.1	0	2	90	0.00	30.323 
17:35	34.1	34.1	34.1	81	28.9	1	3	90	0.00	30.323 
17:40	34.1	34.1	34.1	81	28.9	1	3	90	0.00	30.323 
17:45	34.0	34.0	34.0	82	29.1	1	2	90	0.00	30.321 
17:50	34.0	34.0	34.0	82	29.1	2	3	112	0.00	30.321 
17:55	33.8	33.8	33.8	83	29.2	1	2	112	0.00	30.321 
18:00	33.8	33.8	33.8	83	29.2	1	2	112	0.00	30.317 
18:05	33.7	33.7	33.7	84	29.4	1	3	112	0.00	30.317 
18:10	33.7	33.7	33.7	84	29.4	1	3	112	0.00	30.317 
18:15	33.5	33.5	33.5	83	28.9	1	4	112	0.00	30.307 
18:20	33.5	33.5	33.5	84	29.2	1	3	90	0.00	30.307 
18:25	33.5	33.5	33.5	84	29.2	1	3	112	0.00	30.307 
18:30	33.4	33.4	33.4	84	29.1	0	2	112	0.00	30.306 
18:35	33.4	33.4	33.4	84	29.1	0	2	68	0.00	30.306 
18:40	33.2	33.2	33.2	84	28.9	1	3	68	0.00	30.306 
18:45	33.2	33.2	33.2	84	28.9	1	2	68	0.00	30.306 
18:50	33.2	33.2	33.2	84	28.9	0	2	68	0.00	30.306 
18:55	33.1	33.1	33.1	84	28.8	1	2	90	0.00	30.306 
19:00	33.1	33.1	33.1	84	28.8	1	3	45	0.00	30.303 
19:05	33.1	33.1	33.1	83	28.5	1	2	45	0.00	30.303 
19:10	33.1	33.1	33.1	84	28.8	0	2	45	0.00	30.303 
19:15	32.9	32.9	32.9	84	28.6	0	2	45	0.00	30.293 
19:20	32.9	32.9	32.9	83	28.3	0	3	45	0.00	30.293 
19:25	32.8	32.8	32.8	84	28.5	0	2	45	0.00	30.293 
19:30	32.8	32.8	32.8	84	28.5	0	2	0	0.00	30.282 
19:35	32.8	32.8	32.8	84	28.5	0	1	0	0.00	30.282 
19:40	32.7	32.7	32.7	84	28.4	0	2	0	0.00	30.282 
19:45	32.7	32.7	32.7	84	28.4	0	2	45	0.00	30.274 
19:50	32.7	32.7	32.7	84	28.4	0	2	45	0.00	30.274 
19:55	32.7	32.7	32.7	84	28.4	0	1	45	0.00	30.274 
20:00	32.5	32.5	32.5	84	28.2	0	2	45	0.00	30.272 
20:05	32.5	32.5	32.5	83	27.9	0	1	45	0.00	30.272 
20:10	32.5	32.5	32.5	82	27.6	0	2	45	0.00	30.272 
20:15	32.5	32.5	32.5	82	27.6	0	1	90	0.00	30.269 
20:20	32.5	32.5	32.5	82	27.6	0	2	90	0.00	30.269 
20:25	32.5	32.5	32.5	82	27.6	0	1	90	0.00	30.269 
20:30	32.5	32.5	32.5	82	27.6	0	2	68	0.00	30.256 
20:35	32.5	32.5	32.5	82	27.6	1	2	68	0.00	30.256 
20:40	32.7	32.7	32.7	82	27.8	1	3	45	0.00	30.256 
20:45	32.7	32.7	32.7	81	27.5	1	3	68	0.00	30.254 
20:50	32.8	32.8	32.8	81	27.6	1	3	90	0.00	30.254 
20:55	32.8	32.8	32.8	81	27.6	1	3	112	0.00	30.254 
21:00	32.8	32.8	32.8	82	27.9	1	3	112	0.00	30.244 
21:05	32.8	32.8	32.8	82	27.9	1	3	90	0.00	30.244 
21:10	32.8	32.8	32.8	82	27.9	0	1	68	0.00	30.244 
21:15	32.7	32.7	32.7	82	27.8	1	3	68	0.00	30.242 
21:20	32.7	32.7	32.7	82	27.8	1	2	90	0.00	30.242 
21:25	32.7	32.7	32.7	82	27.8	0	2	90	0.00	30.242 
21:30	32.7	32.7	32.7	82	27.8	0	1	90	0.00	30.234 
21:35	32.7	32.7	32.7	83	28.1	0	2	90	0.00	30.234 
21:40	32.5	32.5	32.5	83	27.9	0	1	90	0.00	30.234 
21:45	32.5	32.5	32.5	83	27.9	0	0	---	0.00	30.228 
21:50	32.5	32.5	32.5	83	27.9	0	0	---	0.00	30.228 
21:55	32.4	32.4	32.4	83	27.8	0	0	---	0.00	30.228 
22:00	32.4	32.4	32.4	83	27.8	0	0	---	0.00	30.223 
22:05	32.4	32.4	32.4	83	27.8	0	0	---	0.00	30.223 
22:10	32.4	32.4	32.4	84	28.1	0	0	---	0.00	30.223 
22:15	32.4	32.4	32.4	84	28.1	0	1	90	0.00	30.209 
22:20	32.4	32.4	32.4	84	28.1	0	1	90	0.00	30.209 
22:25	32.4	32.4	32.4	84	28.1	0	2	90	0.00	30.209 
22:30	32.4	32.4	32.4	84	28.1	0	1	90	0.00	30.208 
22:35	32.4	32.4	32.4	84	28.1	0	2	90	0.00	30.208 
22:40	32.4	32.4	32.4	83	27.8	0	2	90	0.00	30.208 
22:45	32.4	32.4	32.4	83	27.8	0	1	90	0.00	30.199 
22:50	32.4	32.4	32.4	84	28.1	0	1	90	0.00	30.199 
22:55	32.4	32.4	32.4	84	28.1	0	2	90	0.00	30.199 
23:00	32.2	32.2	32.2	84	27.9	0	2	90	0.00	30.197 
23:05	32.2	32.2	32.2	84	27.9	0	2	90	0.00	30.197 
23:10	32.2	32.2	32.2	84	27.9	0	1	90	0.00	30.197 
23:15	32.2	32.2	32.2	84	27.9	0	1	90	0.00	30.195 
23:20	32.2	32.2	32.2	84	27.9	1	3	90	0.00	30.195 
23:25	32.2	32.2	32.2	84	27.9	0	3	90	0.00	30.195 
23:30	32.2	32.2	32.2	84	27.9	0	2	68	0.00	30.191 
23:35	32.1	32.1	32.1	84	27.8	0	1	68	0.00	30.191 
23:40	32.1	32.1	32.1	84	27.8	0	2	90	0.00	30.191 
23:45	32.1	32.1	32.1	84	27.8	0	1	90	0.00	30.199 
23:50	32.1	32.1	32.1	85	28.1	0	2	68	0.00	30.199 
23:55	32.1	32.1	32.1	85	28.1	0	2	68	0.00	30.199 

CoCoRaHS
IN-AL-39
A2 Web Hosting
Creative Commons License
GoDaddy
Look for:

loaded 2017-10-17 18:13:17 • last modified 2010-11-18 10:43:29
Privacy PolicyDisclaimer
• wx.awcolley.com is powered by PmWiki v.2002016 •
• all content (unless otherwise noted) © 2017 A W Colley